Weather History for Wadesboro, NC

Change the Weather History Date:

Wednesday, April 2, 2014

  Actual Average (KCLT) Record (KCLT)
Temperature  
Mean Temperature 70 °F 56 °F  
Max Temperature 85 °F 68 °F 86 °F (1978)
Min Temperature 54 °F 43 °F 28 °F (1881)
Degree Days  
Heating Degree Days 0 10  
Month to date heating degree days 20  
Since 1 July heating degree days 3152  
Cooling Degree Days 4 1  
Month to date cooling degree days 1  
Year to date cooling degree days 6  
Growing Degree Days 20 (Base 50)    
Moisture  
Dew Point 34 °F    
Average Humidity 29    
Maximum Humidity 64    
Minimum Humidity 11    
Precipitation  
Precipitation 0.00 in 0.12 in 2.99 in (1901)
Month to date precipitation 0.23  
Year to date precipitation 10.97  
Snow  
Snow 0.00 in 0.00 in 0.00 in ()
Month to date snowfall 0.0  
Since 1 July snowfall 4.3  
Snow Depth -    
Sea Level Pressure  
Sea Level Pressure 30.05 in    
Wind  
Wind Speed 4 mph (SSW)    
Max Wind Speed 12 mph    
Max Gust Speed 21 mph    
Visibility 10 miles    
Events      
T = Trace of Precipitation, MM = Missing Value Source: NWS Daily Summary

Daily Weather History Graph

Daily Weather History Graph

Search for Another Location

Airport:

Trip Planner

Search our weather history database for the weather conditions in past years. The results will help you decide how hot, cold, wet, or windy it might be!

Date:

Astronomy

Apr. 02, 2014 Rise Set
Actual Time 7:05 AM EDT 7:42 PM EDT
Civil Twilight 6:40 AM EDT 8:07 PM EDT
Nautical Twilight 6:10 AM EDT 8:38 PM EDT
Astronomical Twilight 5:39 AM EDT 9:08 PM EDT
Moon 8:55 AM EDT (4/2) 10:56 PM EDT (4/2)
Length of Visible Light 13h 27m
Length of Day
12h 36m
Waxing Crescent, 10% of the Moon is Illuminated
Apr 2
Waxing Crescent
Apr 7
First Quarter
Apr 15
Full
Apr 22
Last Quarter
Apr 29
New

Hourly Weather History & Observations

Time (EDT) Temp. Dew Point Humidity Pressure Visibility Wind Dir Wind Speed Gust Speed Precip Events Conditions
12:15 AM 54.9 °F 39.9 °F 57% 30.07 in 10.0 mi SE 4.6 mph - N/A   Clear
12:35 AM 66.0 °F 28.9 °F 25% 30.07 in 10.0 mi South 4.6 mph - N/A   Clear
12:55 AM 64.9 °F 28.9 °F 26% 30.07 in 10.0 mi South 3.5 mph - N/A   Clear
1:15 AM 63.7 °F 29.3 °F 27% 30.07 in 10.0 mi Calm Calm - N/A   Clear
1:35 AM 62.6 °F 29.8 °F 29% 30.07 in 10.0 mi SSW 4.6 mph - N/A   Clear
2:15 AM 62.8 °F 30.9 °F 30% 30.07 in 10.0 mi SSW 5.8 mph - N/A   Clear
2:35 AM 62.1 °F 30.9 °F 31% 30.06 in 10.0 mi SSW 4.6 mph - N/A   Clear
2:55 AM 61.2 °F 31.1 °F 32% 30.06 in 10.0 mi SSW 4.6 mph - N/A   Clear
3:15 AM 61.3 °F 30.9 °F 32% 30.05 in 10.0 mi SSW 4.6 mph - N/A   Clear
3:35 AM 61.5 °F 30.9 °F 32% 30.05 in 10.0 mi SSW 3.5 mph - N/A   Clear
3:55 AM 61.3 °F 31.1 °F 32% 30.05 in 10.0 mi SSW 3.5 mph - N/A   Clear
4:15 AM 60.4 °F 32.0 °F 34% 30.04 in 10.0 mi SSW 4.6 mph - N/A   Clear
4:35 AM 59.9 °F 32.2 °F 35% 30.04 in 10.0 mi Calm Calm - N/A   Clear
4:55 AM 58.8 °F 33.6 °F 39% 30.04 in 10.0 mi SSW 3.5 mph - N/A   Clear
5:15 AM 58.6 °F 33.1 °F 38% 30.05 in 10.0 mi SSW 4.6 mph - N/A   Clear
5:35 AM 59.0 °F 33.8 °F 39% 30.05 in 10.0 mi SSW 3.5 mph - N/A   Clear
5:55 AM 58.8 °F 33.8 °F 39% 30.05 in 10.0 mi SSW 3.5 mph - N/A   Clear
6:15 AM 58.6 °F 34.0 °F 40% 30.05 in 10.0 mi Calm Calm - N/A   Clear
6:35 AM 55.2 °F 35.6 °F 48% 30.06 in 10.0 mi Calm Calm - N/A   Clear
6:55 AM 56.7 °F 35.1 °F 44% 30.07 in 10.0 mi SSW 3.5 mph - N/A   Clear
7:15 AM 55.8 °F 35.4 °F 46% 30.07 in 10.0 mi SSW 3.5 mph - N/A   Clear
8:35 AM 55.4 °F 43.3 °F 64% 30.09 in 10.0 mi Calm Calm - N/A   Clear
8:55 AM 61.9 °F 39.6 °F 44% 30.09 in 10.0 mi Calm Calm - N/A   Clear
9:15 AM 64.2 °F 39.7 °F 41% 30.10 in 10.0 mi SW 3.5 mph - N/A   Clear
9:35 AM 66.2 °F 37.8 °F 35% 30.10 in 10.0 mi WSW 4.6 mph - N/A   Clear
9:55 AM 67.6 °F 39.0 °F 35% 30.10 in 10.0 mi SW 3.5 mph - N/A   Clear
10:15 AM 70.0 °F 38.7 °F 32% 30.11 in 10.0 mi SW 3.5 mph - N/A   Clear
10:35 AM 72.5 °F 39.0 °F 30% 30.11 in 10.0 mi WSW 3.5 mph - N/A   Clear
10:55 AM 75.7 °F 38.7 °F 26% 30.11 in 10.0 mi West 3.5 mph - N/A   Clear
11:15 AM 77.7 °F 37.0 °F 23% 30.11 in 10.0 mi Calm Calm - N/A   Clear
11:35 AM 79.3 °F 36.9 °F 22% 30.11 in 10.0 mi SW 8.1 mph - N/A   Clear
11:55 AM 80.2 °F 32.4 °F 18% 30.10 in 10.0 mi SW 5.8 mph - N/A   Clear
12:35 PM 82.2 °F 33.4 °F 17% 30.10 in 10.0 mi SW 10.4 mph - N/A   Clear
12:55 PM 82.6 °F 32.9 °F 17% 30.09 in 10.0 mi SW 6.9 mph 17.3 mph N/A   Clear
1:15 PM 83.1 °F 31.8 °F 16% 30.08 in 10.0 mi WSW 5.8 mph - N/A   Clear
1:55 PM 83.8 °F 32.4 °F 16% 30.07 in 10.0 mi West 6.9 mph 18.4 mph N/A   Clear
2:15 PM 84.4 °F 31.5 °F 15% 30.06 in 10.0 mi SW 9.2 mph 20.7 mph N/A   Clear
2:35 PM 84.6 °F 30.4 °F 14% 30.05 in 10.0 mi WSW 4.6 mph 18.4 mph N/A   Clear
2:55 PM 85.5 °F 32.5 °F 15% 30.04 in 10.0 mi WSW 5.8 mph - N/A   Clear
3:15 PM 85.5 °F 32.2 °F 15% 30.03 in 10.0 mi SSW 5.8 mph 17.3 mph N/A   Clear
3:35 PM 85.5 °F 31.8 °F 15% 30.02 in 10.0 mi WSW 5.8 mph 20.7 mph N/A   Clear
3:55 PM 85.8 °F 28.8 °F 13% 30.02 in 10.0 mi SSW 11.5 mph 17.3 mph N/A   Clear
4:15 PM 85.6 °F 28.2 °F 13% 30.01 in 10.0 mi WSW 6.9 mph 18.4 mph N/A   Clear
4:35 PM 85.5 °F 28.9 °F 13% 30.01 in 10.0 mi SW 8.1 mph 18.4 mph N/A   Clear
4:55 PM 85.1 °F 30.2 °F 14% 30.01 in 10.0 mi SW 5.8 mph - N/A   Clear
5:15 PM 85.6 °F 29.3 °F 13% 30.01 in 10.0 mi SSW 9.2 mph 16.1 mph N/A   Clear
5:35 PM 85.1 °F 28.4 °F 13% 30.01 in 10.0 mi SSW 6.9 mph 16.1 mph N/A   Clear
5:55 PM 85.1 °F 24.6 °F 11% 30.01 in 10.0 mi SW 6.9 mph - N/A   Clear
6:15 PM 84.4 °F 26.1 °F 12% 30.01 in 10.0 mi SSW 9.2 mph - N/A   Clear
6:35 PM 83.1 °F 28.6 °F 14% 30.01 in 10.0 mi SSW 5.8 mph - N/A   Clear
6:55 PM 82.0 °F 27.7 °F 14% 30.02 in 10.0 mi SSW 5.8 mph - N/A   Clear
7:15 PM 80.8 °F 27.9 °F 14% 30.01 in 10.0 mi South 3.5 mph - N/A   Clear
7:35 PM 78.6 °F 30.4 °F 17% 30.01 in 10.0 mi South 3.5 mph - N/A   Clear
7:55 PM 77.2 °F 31.8 °F 19% 30.01 in 10.0 mi Calm Calm - N/A   Clear
8:15 PM 75.2 °F 32.5 °F 21% 30.02 in 10.0 mi South 3.5 mph - N/A   Clear
8:35 PM 73.4 °F 34.9 °F 24% 30.02 in 10.0 mi SSW 3.5 mph - N/A   Clear
8:55 PM 72.3 °F 33.1 °F 24% 30.03 in 10.0 mi SSW 3.5 mph - N/A   Clear
9:15 PM 68.7 °F 35.2 °F 29% 30.03 in 10.0 mi SSW 3.5 mph - N/A   Clear
9:35 PM 65.8 °F 39.2 °F 38% 30.04 in 10.0 mi Calm Calm - N/A   Clear
9:55 PM 64.4 °F 38.5 °F 38% 30.05 in 10.0 mi SSW 3.5 mph - N/A   Clear
10:15 PM 63.1 °F 40.6 °F 44% 30.05 in 10.0 mi South 3.5 mph - N/A   Clear
10:35 PM 59.7 °F 41.7 °F 51% 30.05 in 10.0 mi Calm Calm - N/A   Clear
10:55 PM 60.4 °F 40.8 °F 48% 30.05 in 10.0 mi SSW 3.5 mph - N/A   Clear
11:15 PM 59.9 °F 39.4 °F 47% 30.05 in 10.0 mi Calm Calm - N/A   Clear
11:35 PM 57.9 °F 42.8 °F 57% 30.05 in 10.0 mi South 4.6 mph - N/A   Clear
11:55 PM 63.0 °F 34.2 °F 34% 30.05 in 10.0 mi South 4.6 mph - N/A   Clear